Flag for India Weather past 2 weeks in Faridkot, Punjab, India

Now
77 °F

Mostly cloudy.


Feels Like: 78 °F
Forecast: 79 / 91 °F
Wind: 7 mph from Southeast

Location: Lahore Airport

Current Time: Aug 2, 2015 at 6:33:23 AM

Latest Report: Aug 2, 2015 at 5:25 AM


Visibility: 2 mi

Pressure: 29.62 "Hg

Humidity: 94%

Dew point: 75 °F

Location of FaridkotLocation

Historic Weather in Faridkot — Graph

°F

Faridkot temperature yesterday

Maximum temperature yesterday: 86 °F (at 2:25 PM)
Minimum temperature yesterday: 79 °F (at 4:30 AM)
Average temperature yesterday: 82 °F

Past Weeks' High & Low Weather Summary

 TemperatureHumidityPressure
High97 °F (Jul 19, 4:30 PM)100% (Jul 18, 8:33 AM)29.68 "Hg (Jul 18, 8:33 AM)
Low75 °F (Jul 18, 9:30 AM)53% (Jul 19, 4:30 PM)29.45 "Hg (Jul 18, 5:30 PM)
Average85 °F79%29.55 "Hg
* Reported Jul 18 4:55 AM — Aug 2 5:25 AM, Faridkot, Weather by CustomWeather, © 2015

Note: Actual official high and low records may vary slightly from our data, if they occured in-between our weather recording intervals... More about our weather records

Advertising

Faridkot weather history for previous 24 hours

 ConditionsComfort  
Time TempWeatherWind HumidityBarometerVisibility
5:25 AM
Sun, Aug 2
77 °FMostly cloudy.7 mph94%29.62 "Hg2 mi
4:55 AM77 °FMostly cloudy.10 mph100%29.62 "Hg2 mi
4:25 AM77 °FRain. Mostly cloudy.10 mph100%29.62 "Hg2 mi
3:25 AM77 °FRain. Mostly cloudy.8 mph100%29.62 "Hg2 mi
2:55 AM77 °FRain. Mostly cloudy.8 mph100%29.62 "Hg2 mi
2:25 AM77 °FRain. Partly cloudy.9 mph100%29.62 "Hg2 mi
1:55 AM79 °FRain. Partly cloudy.9 mph94%29.62 "Hg2 mi
1:25 AM79 °FRain. Partly cloudy.10 mph94%29.62 "Hg2 mi
12:55 AM79 °FPartly cloudy.9 mph94%29.62 "Hg2 mi
12:25 AM79 °FPartly cloudy.9 mph94%29.62 "Hg2 mi
11:55 PM
Sat, Aug 1
79 °FRain. Passing clouds.8 mph94%29.62 "Hg2 mi
11:25 PM79 °FPartly cloudy.9 mph94%29.62 "Hg2 mi
10:55 PM81 °FPartly cloudy.10 mph94%29.62 "Hg2 mi
10:25 PM81 °FPartly cloudy.9 mph94%29.62 "Hg2 mi
9:55 PM81 °FPartly cloudy.10 mph100%29.62 "Hg2 mi
9:25 PM81 °FPartly cloudy.14 mph94%29.62 "Hg2 mi
9:00 PM81 °FPartly cloudy.9 mph94%29.62 "Hg2 mi
8:30 PM81 °FPartly cloudy.8 mph94%29.59 "Hg2 mi
7:30 PM81 °FPartly cloudy.10 mph94%29.59 "Hg2 mi
6:25 PM82 °FBroken clouds.7 mph84%29.56 "Hg2 mi
5:55 PM82 °FBroken clouds.10 mph89%29.56 "Hg2 mi
5:25 PM82 °FRain. Broken clouds.9 mph89%29.56 "Hg2 mi
4:55 PM86 °FBroken clouds.15 mph75%29.56 "Hg2 mi
4:25 PM86 °FBroken clouds.12 mph75%29.56 "Hg2 mi
3:55 PM86 °FBroken clouds.15 mph75%29.56 "Hg2 mi
3:25 PM86 °FRain. Broken clouds.14 mph75%29.56 "Hg2 mi
2:55 PM86 °FBroken clouds.15 mph75%29.56 "Hg2 mi
2:25 PM86 °FBroken clouds.16 mph75%29.56 "Hg2 mi
1:55 PM84 °FBroken clouds.17 mph84%29.59 "Hg2 mi
1:25 PM84 °FBroken clouds.14 mph84%29.59 "Hg2 mi
12:55 PM84 °FThunderstorms. Broken clouds.14 mph84%29.59 "Hg2 mi
12:25 PM84 °FThunderstorms. Broken clouds.14 mph84%29.59 "Hg2 mi
11:55 AM82 °FThunderstorms. Broken clouds.12 mph89%29.59 "Hg2 mi
11:25 AM82 °FThunderstorms. Broken clouds.12 mph89%29.59 "Hg2 mi
10:55 AM82 °FThunderstorms. Broken clouds.14 mph84%29.59 "Hg2 mi
10:25 AM82 °FThunderstorms. Broken clouds.12 mph84%29.59 "Hg2 mi
9:55 AM81 °FThundershowers. Broken clouds.12 mph89%29.56 "Hg2 mi
9:25 AM81 °FThunderstorms. Broken clouds.12 mph89%29.56 "Hg2 mi
8:55 AM81 °FThundershowers. Broken clouds.12 mph89%29.56 "Hg2 mi
8:30 AM81 °FBroken clouds.13 mph89%29.53 "Hg2 mi
8:00 AM81 °FBroken clouds.12 mph84%29.53 "Hg2 mi
7:30 AM81 °FBroken clouds.12 mph84%29.53 "Hg2 mi
7:00 AM79 °FBroken clouds.10 mph94%29.53 "Hg2 mi
6:30 AM79 °FBroken clouds.8 mph94%29.50 "Hg2 mi
6:00 AM79 °FScattered clouds.8 mph94%29.50 "Hg2 mi
Weather by CustomWeather, © 2015

See weather overviewHow to use our weather pages